,,Stat5,,Stat1,,Stat2,,Stat3,,Stat4,,Wind1,,Wind1,
time,status,PA1M_AVG,status,PR1M_SUM,status,RH1M_AVG,status,SR1M_AVG,status,TA1M_AVG,status,W1dAve1m,status,W1sAve1m,
2002-09-24, 00:00:01,VALID,919.063,VALID,0,VALID,98.6511,VALID,-0.0169808,VALID,19.7017,VALID,89,VALID,0.487459,
2002-09-24, 00:01:00,VALID,919.051,VALID,0,VALID,98.688,VALID,0,VALID,19.7087,VALID,100,VALID,0.332442,
2002-09-24, 00:02:00,VALID,919.047,VALID,0,VALID,98.7159,VALID,-0.0509425,VALID,19.7054,VALID,67,VALID,0.42079,
2002-09-24, 00:03:00,VALID,919.042,VALID,0,VALID,98.7388,VALID,-0.0679233,VALID,19.7062,VALID,84,VALID,0.626056,
2002-09-24, 00:04:00,VALID,919.037,VALID,0,VALID,98.7693,VALID,-0.0679233,VALID,19.703,VALID,84,VALID,0.526195,
2002-09-24, 00:05:00,VALID,919.028,VALID,0,VALID,98.777,VALID,-0.0509425,VALID,19.7,VALID,112,VALID,0.719196,
2002-09-24, 00:06:00,VALID,919.02,VALID,0,VALID,98.7935,VALID,-0.0509425,VALID,19.6967,VALID,102,VALID,0.669471,
2002-09-24, 00:07:00,VALID,918.981,VALID,0,VALID,98.8164,VALID,-0.0679233,VALID,19.6933,VALID,99,VALID,0.53674,
2002-09-24, 00:08:00,VALID,918.961,VALID,0,VALID,98.8456,VALID,-0.0679233,VALID,19.6898,VALID,103,VALID,0.599918,
2002-09-24, 00:09:00,VALID,918.932,VALID,0,VALID,98.8634,VALID,-0.0679233,VALID,19.6868,VALID,119,VALID,0.651563,
2002-09-24, 00:10:00,VALID,918.901,VALID,0,VALID,98.866,VALID,-0.0509425,VALID,19.69,VALID,112,VALID,0.703526,
2002-09-24, 00:11:00,VALID,918.862,VALID,0,VALID,98.8978,VALID,-0.0169808,VALID,19.6905,VALID,112,VALID,1.02817,
2002-09-24, 00:12:00,VALID,918.85,VALID,0,VALID,98.9067,VALID,-0.101885,VALID,19.6903,VALID,107,VALID,0.694878,
2002-09-24, 00:13:00,VALID,918.815,VALID,0,VALID,98.9283,VALID,-0.0339617,VALID,19.6935,VALID,130,VALID,0.583265,
2002-09-24, 00:14:00,VALID,918.792,VALID,0,VALID,98.9156,VALID,-0.0509425,VALID,19.6766,VALID,146,VALID,0.609776,
2002-09-24, 00:15:00,VALID,918.778,VALID,0,VALID,98.9334,VALID,-0.0509425,VALID,19.687,VALID,154,VALID,0.938281,
2002-09-24, 00:16:00,VALID,918.771,VALID,0,VALID,98.9563,VALID,-0.0849042,VALID,19.6808,VALID,170,VALID,0.659152,
2002-09-24, 00:17:00,VALID,918.759,VALID,0,VALID,98.9486,VALID,-0.0849042,VALID,19.6781,VALID,169,VALID,0.612965,
2002-09-24, 00:18:00,VALID,918.751,VALID,0,VALID,98.941,VALID,-0.0849042,VALID,19.6741,VALID,163,VALID,0.590763,
2002-09-24, 00:19:00,VALID,918.762,VALID,0,VALID,98.9346,VALID,-0.0849042,VALID,19.6612,VALID,166,VALID,0.676562,
2002-09-24, 00:20:00,VALID,918.775,VALID,0,VALID,98.9474,VALID,-0.0679233,VALID,19.6451,VALID,159,VALID,0.723758,
2002-09-24, 00:21:00,VALID,918.773,VALID,0,VALID,98.9601,VALID,-0.0849042,VALID,19.6354,VALID,152,VALID,0.794552,
2002-09-24, 00:22:00,VALID,918.771,VALID,0,VALID,98.9881,VALID,-0.0679233,VALID,19.6453,VALID,151,VALID,0.751234,
2002-09-24, 00:23:00,VALID,918.779,VALID,0,VALID,98.9842,VALID,-0.0509425,VALID,19.6381,VALID,137,VALID,0.408259,
2002-09-24, 00:24:00,VALID,918.768,VALID,0,VALID,98.9995,VALID,-0.0339617,VALID,19.6354,VALID,177,VALID,0.49399,
2002-09-24, 00:25:00,VALID,918.76,VALID,0,VALID,98.9881,VALID,-0.0679233,VALID,19.6329,VALID,168,VALID,0.389678,
2002-09-24, 00:26:00,VALID,918.747,VALID,0,VALID,98.9842,VALID,-0.0509425,VALID,19.6257,VALID,177,VALID,0.480903,
2002-09-24, 00:27:00,VALID,918.73,VALID,0,VALID,98.9931,VALID,-0.0849042,VALID,19.6257,VALID,179,VALID,0.442434,
2002-09-24, 00:28:00,VALID,918.708,VALID,0,VALID,99.0071,VALID,-0.0679233,VALID,19.6259,VALID,196,VALID,0.357772,
2002-09-24, 00:29:00,VALID,918.708,VALID,0,VALID,99.0249,VALID,-0.0509425,VALID,19.6292,VALID,217,VALID,0.325977,
2002-09-24, 00:30:00,VALID,918.687,VALID,0,VALID,99.0173,VALID,-0.101885,VALID,19.6165,VALID,219,VALID,0.392857,
2002-09-24, 00:31:00,VALID,918.689,VALID,0,VALID,99.0059,VALID,-0.0849042,VALID,19.6197,VALID,226,VALID,0.514992,
2002-09-24, 00:32:00,VALID,918.688,VALID,0,VALID,98.997,VALID,-0.101885,VALID,19.5872,VALID,228,VALID,0.371324,
2002-09-24, 00:33:00,VALID,918.676,VALID,0,VALID,98.9792,VALID,-0.0509425,VALID,19.5839,VALID,220,VALID,0.364732,
2002-09-24, 00:34:00,VALID,918.681,VALID,0,VALID,99.0033,VALID,-0.0509425,VALID,19.5678,VALID,218,VALID,0.338742,
2002-09-24, 00:35:00,VALID,918.694,VALID,0,VALID,98.9995,VALID,-0.0849042,VALID,19.568,VALID,222,VALID,0.460093,
2002-09-24, 00:36:00,VALID,918.697,VALID,0,VALID,98.997,VALID,-0.0849042,VALID,19.5553,VALID,211,VALID,0.451275,
2002-09-24, 00:37:00,VALID,918.686,VALID,0,VALID,98.9931,VALID,-0.0849042,VALID,19.5457,VALID,218,VALID,0.533036,
2002-09-24, 00:38:00,VALID,918.655,VALID,0,VALID,98.9982,VALID,-0.0679233,VALID,19.5223,VALID,226,VALID,0.486779,
2002-09-24, 00:39:00,VALID,918.652,VALID,0,VALID,99.0071,VALID,-0.0849042,VALID,19.5295,VALID,236,VALID,0.397254,
2002-09-24, 00:40:00,VALID,918.612,VALID,0,VALID,99.016,VALID,-0.0509425,VALID,19.5163,VALID,213,VALID,0.300998,
2002-09-24, 00:41:00,VALID,918.59,VALID,0,VALID,99.0249,VALID,-0.101885,VALID,19.5029,VALID,211,VALID,0.331414,
2002-09-24, 00:42:00,VALID,918.567,VALID,0,VALID,99.0351,VALID,-0.101885,VALID,19.497,VALID,211,VALID,0.0174279,
2002-09-24, 00:43:00,VALID,918.544,VALID,0,VALID,99.0262,VALID,-0.0509425,VALID,19.4972,VALID,210,VALID,0.0125,
2002-09-24, 00:44:00,VALID,918.536,VALID,0,VALID,99.0427,VALID,-0.0679233,VALID,19.4778,VALID,192,VALID,0.286607,
2002-09-24, 00:45:01,VALID,918.529,VALID,0,VALID,99.0478,VALID,-0.101885,VALID,19.4644,VALID,187,VALID,0.378801,
2002-09-24, 00:46:00,VALID,918.535,VALID,0,VALID,99.044,VALID,-0.101885,VALID,19.4711,VALID,208,VALID,0.0636489,
2002-09-24, 00:47:00,VALID,918.532,VALID,0,VALID,99.0516,VALID,-0.0339617,VALID,19.4604,VALID,208,VALID,0.0457589,
2002-09-24, 00:48:00,VALID,918.528,VALID,0,VALID,99.0402,VALID,0.0339617,VALID,19.4369,VALID,208,VALID,0.0416667,
2002-09-24, 00:49:00,VALID,918.505,VALID,0,VALID,99.016,VALID,0,VALID,19.4147,VALID,208,VALID,0.0259713,
2002-09-24, 00:50:00,VALID,918.503,VALID,0,VALID,99.002,VALID,0.0339617,VALID,19.3891,VALID,196,VALID,0.0914885,
2002-09-24, 00:51:00,VALID,918.5,VALID,0,VALID,99.0237,VALID,0.0339617,VALID,19.366,VALID,149,VALID,0.258705,
2002-09-24, 00:52:00,VALID,918.482,VALID,0,VALID,99.0402,VALID,0,VALID,19.3695,VALID,109,VALID,0.313101,
2002-09-24, 00:53:01,VALID,918.478,VALID,0,VALID,99.0605,VALID,0.0339617,VALID,19.3566,VALID,109,VALID,0.259706,
2002-09-24, 00:54:00,VALID,918.499,VALID,0,VALID,99.0898,VALID,0.0169808,VALID,19.3601,VALID,109,VALID,0.277127,
2002-09-24, 00:55:00,VALID,918.505,VALID,0,VALID,99.1165,VALID,0.0339617,VALID,19.3631,VALID,108,VALID,0.245683,
2002-09-24, 00:56:00,VALID,918.506,VALID,0,VALID,99.1139,VALID,0.0509425,VALID,19.3496,VALID,70,VALID,0.422476,
2002-09-24, 00:57:00,VALID,918.534,VALID,0,VALID,99.0656,VALID,0.0169808,VALID,19.3146,VALID,48,VALID,0.535352,
2002-09-24, 00:58:00,VALID,918.525,VALID,0,VALID,98.969,VALID,0.0169808,VALID,19.2572,VALID,48,VALID,0.474777,
2002-09-24, 00:59:00,VALID,918.538,VALID,0,VALID,98.9512,VALID,0.0679233,VALID,19.1884,VALID,48,VALID,0.456503,
2002-09-24, 01:00:00,VALID,918.546,VALID,0,VALID,98.9753,VALID,0.0339617,VALID,19.1531,VALID,48,VALID,0.351103,
2002-09-24, 01:01:00,VALID,918.532,VALID,0,VALID,99.0326,VALID,0.0509425,VALID,19.1432,VALID,48,VALID,0.0428571,
2002-09-24, 01:02:00,VALID,918.518,VALID,0,VALID,99.0682,VALID,0.0339617,VALID,19.1471,VALID,48,VALID,0,
2002-09-24, 01:03:00,VALID,918.505,VALID,0,VALID,99.0923,VALID,0,VALID,19.1437,VALID,48,VALID,0,
2002-09-24, 01:04:00,VALID,918.498,VALID,0,VALID,99.1114,VALID,0.0169808,VALID,19.1499,VALID,48,VALID,0,
2002-09-24, 01:05:00,VALID,918.478,VALID,0,VALID,99.1076,VALID,0,VALID,19.1601,VALID,48,VALID,0.0741071,
2002-09-24, 01:06:00,VALID,918.472,VALID,0,VALID,99.0872,VALID,0,VALID,19.1238,VALID,48,VALID,0.314303,
2002-09-24, 01:07:00,VALID,918.462,VALID,0,VALID,99.0275,VALID,0.0169808,VALID,19.089,VALID,48,VALID,0.263968,
2002-09-24, 01:08:00,VALID,918.463,VALID,0,VALID,98.9741,VALID,0,VALID,19.0247,VALID,48,VALID,0.263889,
2002-09-24, 01:09:00,VALID,918.451,VALID,0,VALID,98.9779,VALID,0,VALID,18.9891,VALID,48,VALID,0.224918,
2002-09-24, 01:10:00,VALID,918.445,VALID,0,VALID,98.9944,VALID,0,VALID,18.9497,VALID,48,VALID,0.229968,
2002-09-24, 01:11:00,VALID,918.434,VALID,0,VALID,99.0834,VALID,0,VALID,18.9467,VALID,48,VALID,0.126367,
2002-09-24, 01:12:00,VALID,918.429,VALID,0,VALID,99.1496,VALID,0,VALID,18.9658,VALID,48,VALID,0.23058,
2002-09-24, 01:13:00,VALID,918.386,VALID,0,VALID,99.1432,VALID,0.0169808,VALID,18.9824,VALID,48,VALID,0.38598,
2002-09-24, 01:14:00,VALID,918.388,VALID,0,VALID,99.1699,VALID,0,VALID,18.9949,VALID,48,VALID,0.380515,
2002-09-24, 01:15:00,VALID,918.382,VALID,0,VALID,99.2093,VALID,0,VALID,19.041,VALID,48,VALID,0.501562,
2002-09-24, 01:16:01,VALID,918.372,VALID,0,VALID,99.2335,VALID,0,VALID,19.0664,VALID,48,VALID,0.486378,
2002-09-24, 01:17:00,VALID,918.368,VALID,0,VALID,99.2475,VALID,0,VALID,19.0659,VALID,48,VALID,0.454392,
2002-09-24, 01:18:00,VALID,918.358,VALID,0,VALID,99.2564,VALID,0,VALID,19.089,VALID,48,VALID,0.410362,
2002-09-24, 01:19:00,VALID,918.338,VALID,0,VALID,99.2525,VALID,-0.0169808,VALID,19.0828,VALID,48,VALID,0.364732,
2002-09-24, 01:20:00,VALID,918.319,VALID,0,VALID,99.2589,VALID,0,VALID,19.0823,VALID,71,VALID,0.639022,
2002-09-24, 01:21:00,VALID,918.297,VALID,0,VALID,99.2894,VALID,0,VALID,19.1022,VALID,90,VALID,0.701231,
2002-09-24, 01:22:00,VALID,918.275,VALID,0,VALID,99.325,VALID,-0.0169808,VALID,19.1412,VALID,100,VALID,0.525825,
2002-09-24, 01:23:00,VALID,918.259,VALID,0,VALID,99.3047,VALID,0,VALID,19.1568,VALID,94,VALID,0.507813,
2002-09-24, 01:24:00,VALID,918.253,VALID,0,VALID,99.306,VALID,0,VALID,19.1439,VALID,93,VALID,0.358974,
2002-09-24, 01:25:00,VALID,918.248,VALID,0,VALID,99.311,VALID,-0.0169808,VALID,19.1511,VALID,88,VALID,0.566797,
2002-09-24, 01:26:00,VALID,918.238,VALID,0,VALID,99.311,VALID,-0.0169808,VALID,19.1509,VALID,75,VALID,0.726339,
2002-09-24, 01:27:00,VALID,918.229,VALID,0,VALID,99.306,VALID,-0.0169808,VALID,19.1543,VALID,63,VALID,0.64886,
2002-09-24, 01:28:01,VALID,918.242,VALID,0,VALID,99.3021,VALID,-0.0169808,VALID,19.1312,VALID,75,VALID,0.573759,
2002-09-24, 01:29:00,VALID,918.225,VALID,0,VALID,99.3047,VALID,0,VALID,19.1213,VALID,67,VALID,0.672991,
2002-09-24, 01:30:00,VALID,918.218,VALID,0,VALID,99.3123,VALID,-0.0169808,VALID,19.1181,VALID,59,VALID,0.416266,
2002-09-24, 01:31:00,VALID,918.226,VALID,0,VALID,99.306,VALID,-0.0169808,VALID,19.1086,VALID,51,VALID,0.577703,
2002-09-24, 01:32:00,VALID,918.234,VALID,0,VALID,99.3301,VALID,-0.0169808,VALID,19.1312,VALID,46,VALID,0.702097,
2002-09-24, 01:33:00,VALID,918.229,VALID,0,VALID,99.3517,VALID,0,VALID,19.167,VALID,33,VALID,0.485045,
2002-09-24, 01:34:00,VALID,918.238,VALID,0,VALID,99.3644,VALID,-0.0169808,VALID,19.1896,VALID,32,VALID,0.404447,
2002-09-24, 01:35:00,VALID,918.236,VALID,0,VALID,99.3594,VALID,0,VALID,19.2125,VALID,43,VALID,0.379261,
2002-09-24, 01:36:00,VALID,918.234,VALID,0,VALID,99.3644,VALID,0,VALID,19.2058,VALID,46,VALID,0.444444,
2002-09-24, 01:37:00,VALID,918.216,VALID,0,VALID,99.3619,VALID,0,VALID,19.2025,VALID,46,VALID,0.481291,
2002-09-24, 01:38:00,VALID,918.22,VALID,0,VALID,99.3632,VALID,0,VALID,19.212,VALID,37,VALID,0.617989,
2002-09-24, 01:39:00,VALID,918.206,VALID,0,VALID,99.3632,VALID,0,VALID,19.212,VALID,31,VALID,0.664063,
2002-09-24, 01:40:00,VALID,918.199,VALID,0,VALID,99.3632,VALID,0,VALID,19.2122,VALID,51,VALID,0.716964,
2002-09-24, 01:41:00,VALID,918.185,VALID,0,VALID,99.3734,VALID,0,VALID,19.2251,VALID,30,VALID,0.635769,
2002-09-24, 01:42:01,VALID,918.184,VALID,0,VALID,99.3784,VALID,-0.0169808,VALID,19.2318,VALID,20,VALID,0.62477,
2002-09-24, 01:43:00,VALID,918.173,VALID,0,VALID,99.3835,VALID,0,VALID,19.244,VALID,17,VALID,0.76317,
2002-09-24, 01:44:01,VALID,918.155,VALID,0,VALID,99.3899,VALID,0,VALID,19.2674,VALID,28,VALID,0.642228,
2002-09-24, 01:45:01,VALID,918.153,VALID,0,VALID,99.3924,VALID,0,VALID,19.257,VALID,20,VALID,0.772804,
2002-09-24, 01:46:00,VALID,918.152,VALID,0,VALID,99.4001,VALID,0,VALID,19.2766,VALID,14,VALID,0.723067,
2002-09-24, 01:47:00,VALID,918.141,VALID,0,VALID,99.395,VALID,-0.0339617,VALID,19.2801,VALID,18,VALID,0.581696,
2002-09-24, 01:48:00,VALID,918.137,VALID,0,VALID,99.3912,VALID,-0.0169808,VALID,19.296,VALID,21,VALID,0.82492,
2002-09-24, 01:49:00,VALID,918.137,VALID,0,VALID,99.4001,VALID,0,VALID,19.3027,VALID,6,VALID,0.648438,
2002-09-24, 01:50:00,VALID,918.129,VALID,0,VALID,99.4051,VALID,0,VALID,19.3027,VALID,17,VALID,0.435764,
2002-09-24, 01:51:01,VALID,918.123,VALID,0,VALID,99.3924,VALID,-0.0169808,VALID,19.2925,VALID,30,VALID,0.938528,
2002-09-24, 01:52:00,VALID,918.106,VALID,0,VALID,99.4064,VALID,0,VALID,19.3061,VALID,29,VALID,0.759215,
2002-09-24, 01:53:00,VALID,918.087,VALID,0,VALID,99.3988,VALID,0,VALID,19.3188,VALID,21,VALID,0.528125,
2002-09-24, 01:54:01,VALID,918.073,VALID,0,VALID,99.4115,VALID,-0.0339617,VALID,19.335,VALID,19,VALID,0.46808,
2002-09-24, 01:55:01,VALID,918.059,VALID,0,VALID,99.4115,VALID,-0.0169808,VALID,19.3317,VALID,25,VALID,0.520059,
2002-09-24, 01:56:00,VALID,918.046,VALID,0,VALID,99.4064,VALID,0,VALID,19.3181,VALID,30,VALID,0.515625,
2002-09-24, 01:57:01,VALID,918.03,VALID,0,VALID,99.4077,VALID,0,VALID,19.3248,VALID,30,VALID,0.234598,
2002-09-24, 01:58:01,VALID,917.993,VALID,0,VALID,99.4102,VALID,0,VALID,19.328,VALID,30,VALID,0.280248,
2002-09-24, 01:59:01,VALID,917.977,VALID,0,VALID,99.409,VALID,-0.0169808,VALID,19.3245,VALID,30,VALID,0.154561,
2002-09-24, 02:00:01,VALID,917.951,VALID,0,VALID,99.4001,VALID,0.0339617,VALID,19.3283,VALID,30,VALID,0.277961,
2002-09-24, 02:01:01,VALID,917.938,VALID,0,VALID,99.3975,VALID,0,VALID,19.3119,VALID,30,VALID,0.272768,
2002-09-24, 02:02:00,VALID,917.939,VALID,0,VALID,99.4166,VALID,0.0509425,VALID,19.2989,VALID,30,VALID,0.166066,
2002-09-24, 02:03:01,VALID,917.938,VALID,0,VALID,99.4026,VALID,0.0339617,VALID,19.2853,VALID,30,VALID,0.00568182,
2002-09-24, 02:04:01,VALID,917.933,VALID,0,VALID,99.4001,VALID,0.0339617,VALID,19.2754,VALID,30,VALID,0,
2002-09-24, 02:05:01,VALID,917.928,VALID,0,VALID,99.4013,VALID,0.0679233,VALID,19.2759,VALID,30,VALID,0.00472862,
2002-09-24, 02:06:01,VALID,917.921,VALID,0,VALID,99.3975,VALID,0.0169808,VALID,19.2759,VALID,30,VALID,0.217348,
2002-09-24, 02:07:01,VALID,917.907,VALID,0,VALID,99.4115,VALID,0.0509425,VALID,19.2888,VALID,30,VALID,0.234375,
2002-09-24, 02:08:01,VALID,917.906,VALID,0,VALID,99.4128,VALID,0.0169808,VALID,19.2788,VALID,30,VALID,0.296205,
2002-09-24, 02:09:01,VALID,917.907,VALID,0,VALID,99.4128,VALID,0.0679233,VALID,19.2654,VALID,30,VALID,0.215372,
2002-09-24, 02:10:01,VALID,917.9,VALID,0,VALID,99.4217,VALID,0.0509425,VALID,19.2724,VALID,30,VALID,0.102482,
2002-09-24, 02:11:01,VALID,917.896,VALID,0,VALID,99.4191,VALID,0.0509425,VALID,19.301,VALID,30,VALID,0,
2002-09-24, 02:12:01,VALID,917.896,VALID,0,VALID,99.4268,VALID,0.0169808,VALID,19.3144,VALID,30,VALID,0,
2002-09-24, 02:13:01,VALID,917.894,VALID,0,VALID,99.4293,VALID,0.0679233,VALID,19.3141,VALID,30,VALID,0,
2002-09-24, 02:14:01,VALID,917.895,VALID,0,VALID,99.4306,VALID,0.0509425,VALID,19.3141,VALID,30,VALID,0,
2002-09-24, 02:15:01,VALID,917.896,VALID,0,VALID,99.4306,VALID,0.0679233,VALID,19.3077,VALID,30,VALID,0.0174107,
2002-09-24, 02:16:01,VALID,917.889,VALID,0,VALID,99.4331,VALID,0.0679233,VALID,19.2977,VALID,30,VALID,0.204527,
2002-09-24, 02:17:01,VALID,917.893,VALID,0,VALID,99.4217,VALID,0,VALID,19.3054,VALID,30,VALID,0.474669,
2002-09-24, 02:18:01,VALID,917.884,VALID,0,VALID,99.4242,VALID,-0.0509425,VALID,19.3188,VALID,29,VALID,0.611545,
2002-09-24, 02:19:01,VALID,917.894,VALID,0,VALID,99.4268,VALID,-0.0509425,VALID,19.3156,VALID,20,VALID,0.692845,
2002-09-24, 02:20:01,VALID,917.911,VALID,0,VALID,99.4293,VALID,-0.0339617,VALID,19.3059,VALID,9,VALID,0.865184,
2002-09-24, 02:21:00,VALID,917.913,VALID,0,VALID,99.4293,VALID,-0.0509425,VALID,19.2833,VALID,9,VALID,0.758789,
2002-09-24, 02:22:00,VALID,917.917,VALID,0,VALID,99.4306,VALID,-0.0169808,VALID,19.2801,VALID,9,VALID,0.627009,
2002-09-24, 02:23:00,VALID,917.907,VALID,0,VALID,99.428,VALID,-0.0509425,VALID,19.244,VALID,12,VALID,0.610431,
2002-09-24, 02:24:00,VALID,917.898,VALID,0,VALID,99.4255,VALID,-0.0509425,VALID,19.2152,VALID,14,VALID,0.420037,
2002-09-24, 02:25:00,VALID,917.902,VALID,0,VALID,99.4293,VALID,-0.0509425,VALID,19.2222,VALID,13,VALID,0.241071,
2002-09-24, 02:26:00,VALID,917.888,VALID,0,VALID,99.428,VALID,-0.0509425,VALID,19.2127,VALID,357,VALID,0.340345,
2002-09-24, 02:27:00,VALID,917.862,VALID,0,VALID,99.4318,VALID,-0.0849042,VALID,19.1928,VALID,2,VALID,0.49451,
2002-09-24, 02:28:00,VALID,917.859,VALID,0,VALID,99.442,VALID,0,VALID,19.173,VALID,14,VALID,0.795641,
2002-09-24, 02:29:00,VALID,917.844,VALID,0,VALID,99.4306,VALID,-0.0679233,VALID,19.1735,VALID,17,VALID,0.58058,
2002-09-24, 02:30:00,VALID,917.835,VALID,0,VALID,99.4369,VALID,-0.0849042,VALID,19.1605,VALID,16,VALID,0.727364,
2002-09-24, 02:31:00,VALID,917.844,VALID,0,VALID,99.4318,VALID,-0.0509425,VALID,19.1643,VALID,16,VALID,0.633286,
2002-09-24, 02:32:00,VALID,917.85,VALID,0,VALID,99.4496,VALID,-0.0339617,VALID,19.1379,VALID,21,VALID,0.756293,
2002-09-24, 02:33:00,VALID,917.859,VALID,0,VALID,99.4484,VALID,-0.0679233,VALID,19.1183,VALID,30,VALID,0.443051,
2002-09-24, 02:34:00,VALID,917.852,VALID,0,VALID,99.442,VALID,-0.0679233,VALID,19.1121,VALID,33,VALID,0.490585,
2002-09-24, 02:35:00,VALID,917.855,VALID,0,VALID,99.4382,VALID,-0.0169808,VALID,19.0962,VALID,59,VALID,0.625586,
2002-09-24, 02:36:00,VALID,917.846,VALID,0,VALID,99.4395,VALID,-0.0169808,VALID,19.083,VALID,81,VALID,0.545313,
2002-09-24, 02:37:00,VALID,917.82,VALID,0,VALID,99.4369,VALID,-0.0509425,VALID,19.0704,VALID,95,VALID,0.685811,
2002-09-24, 02:38:00,VALID,917.815,VALID,0,VALID,99.4458,VALID,-0.0509425,VALID,19.0475,VALID,115,VALID,0.804688,
2002-09-24, 02:39:00,VALID,917.788,VALID,0,VALID,99.4408,VALID,-0.0679233,VALID,19.0415,VALID,121,VALID,0.826786,
2002-09-24, 02:40:00,VALID,917.768,VALID,0,VALID,99.4357,VALID,-0.0679233,VALID,19.0381,VALID,112,VALID,0.854768,
2002-09-24, 02:41:00,VALID,917.735,VALID,0,VALID,99.4446,VALID,-0.0679233,VALID,19.0351,VALID,105,VALID,0.903294,
2002-09-24, 02:42:00,VALID,917.712,VALID,0,VALID,99.4585,VALID,-0.0509425,VALID,19.0346,VALID,110,VALID,0.971423,
2002-09-24, 02:43:00,VALID,917.689,VALID,0,VALID,99.4649,VALID,-0.0509425,VALID,19.0314,VALID,110,VALID,0.666741,
2002-09-24, 02:44:00,VALID,917.671,VALID,0,VALID,99.4636,VALID,-0.0509425,VALID,19.0219,VALID,123,VALID,0.916266,
2002-09-24, 02:45:00,VALID,917.656,VALID,0,VALID,99.4725,VALID,-0.0849042,VALID,19.0418,VALID,123,VALID,0.986032,
2002-09-24, 02:46:00,VALID,917.655,VALID,0,VALID,99.4725,VALID,-0.0849042,VALID,19.0351,VALID,135,VALID,0.614366,
2002-09-24, 02:47:00,VALID,917.657,VALID,0,VALID,99.4675,VALID,-0.0509425,VALID,19.0249,VALID,113,VALID,0.244449,
2002-09-24, 02:48:00,VALID,917.658,VALID,0,VALID,99.4662,VALID,-0.0509425,VALID,19.0251,VALID,108,VALID,0.383013,
2002-09-24, 02:49:00,VALID,917.637,VALID,0,VALID,99.4649,VALID,-0.0679233,VALID,19.0058,VALID,92,VALID,0.599805,
2002-09-24, 02:50:00,VALID,917.626,VALID,0,VALID,99.4725,VALID,-0.0679233,VALID,19.0095,VALID,102,VALID,1.01272,
2002-09-24, 02:51:00,VALID,917.606,VALID,0,VALID,99.4776,VALID,-0.0339617,VALID,19.0028,VALID,115,VALID,1.29392,
2002-09-24, 02:52:00,VALID,917.612,VALID,0,VALID,99.4789,VALID,-0.0509425,VALID,19.0025,VALID,117,VALID,1.14936,
2002-09-24, 02:53:00,VALID,917.593,VALID,0,VALID,99.4853,VALID,-0.0169808,VALID,19.0095,VALID,113,VALID,1.00312,
2002-09-24, 02:54:00,VALID,917.595,VALID,0,VALID,99.4891,VALID,-0.0169808,VALID,19.0251,VALID,131,VALID,0.657252,
2002-09-24, 02:55:00,VALID,917.61,VALID,0,VALID,99.4954,VALID,-0.0849042,VALID,19.0221,VALID,135,VALID,0.885135,
2002-09-24, 02:56:00,VALID,917.605,VALID,0,VALID,99.4942,VALID,-0.0509425,VALID,19.0221,VALID,131,VALID,0.523643,
2002-09-24, 02:57:00,VALID,917.615,VALID,0,VALID,99.5005,VALID,-0.0849042,VALID,19.0219,VALID,111,VALID,1.18594,
2002-09-24, 02:58:00,VALID,917.625,VALID,0,VALID,99.5056,VALID,-0.0509425,VALID,19.0251,VALID,119,VALID,0.831731,
2002-09-24, 02:59:00,VALID,917.641,VALID,0,VALID,99.5031,VALID,-0.0849042,VALID,19.0251,VALID,120,VALID,0.619081,
2002-09-24, 03:00:00,VALID,917.639,VALID,0,VALID,99.5056,VALID,-0.0509425,VALID,19.0418,VALID,139,VALID,0.583984,
2002-09-24, 03:01:00,VALID,917.633,VALID,0,VALID,99.5158,VALID,-0.0849042,VALID,19.0217,VALID,126,VALID,0.587788,
2002-09-24, 03:02:00,VALID,917.642,VALID,0,VALID,99.5081,VALID,-0.0509425,VALID,19.0221,VALID,128,VALID,0.413261,
2002-09-24, 03:03:00,VALID,917.636,VALID,0,VALID,99.5056,VALID,-0.0339617,VALID,19.0159,VALID,125,VALID,0.685742,
2002-09-24, 03:04:00,VALID,917.623,VALID,0,VALID,99.5056,VALID,-0.0169808,VALID,19.0025,VALID,133,VALID,0.681696,
2002-09-24, 03:05:00,VALID,917.61,VALID,0,VALID,99.5094,VALID,-0.0509425,VALID,18.9928,VALID,131,VALID,0.747889,
2002-09-24, 03:06:00,VALID,917.617,VALID,0,VALID,99.5056,VALID,-0.0849042,VALID,19.003,VALID,140,VALID,0.734835,
2002-09-24, 03:07:00,VALID,917.601,VALID,0,VALID,99.5043,VALID,-0.0509425,VALID,18.9931,VALID,151,VALID,0.652902,
2002-09-24, 03:08:00,VALID,917.599,VALID,0,VALID,99.5094,VALID,-0.0339617,VALID,18.9901,VALID,141,VALID,0.79387,
2002-09-24, 03:09:00,VALID,917.601,VALID,0,VALID,99.5107,VALID,-0.0679233,VALID,18.9804,VALID,128,VALID,0.673353,
2002-09-24, 03:10:00,VALID,917.582,VALID,0,VALID,99.5259,VALID,-0.0169808,VALID,18.9802,VALID,141,VALID,0.969161,
2002-09-24, 03:11:00,VALID,917.568,VALID,0,VALID,99.5221,VALID,0,VALID,18.9834,VALID,143,VALID,0.96317,
2002-09-24, 03:12:00,VALID,917.553,VALID,0,VALID,99.5323,VALID,-0.0339617,VALID,18.9928,VALID,139,VALID,0.981571,
2002-09-24, 03:13:00,VALID,917.547,VALID,0,VALID,99.531,VALID,-0.0849042,VALID,19.0025,VALID,149,VALID,1.1437,
2002-09-24, 03:14:00,VALID,917.538,VALID,0,VALID,99.5387,VALID,0,VALID,19.0125,VALID,153,VALID,1.34722,
2002-09-24, 03:15:00,VALID,917.532,VALID,0,VALID,99.5298,VALID,-0.0169808,VALID,19.0224,VALID,167,VALID,0.896998,
2002-09-24, 03:16:00,VALID,917.53,VALID,0,VALID,99.5348,VALID,-0.0169808,VALID,19.0251,VALID,158,VALID,1.23357,
2002-09-24, 03:17:00,VALID,917.528,VALID,0,VALID,99.5323,VALID,-0.0509425,VALID,19.0224,VALID,156,VALID,1.1832,
2002-09-24, 03:18:00,VALID,917.531,VALID,0,VALID,99.5425,VALID,-0.0169808,VALID,19.0284,VALID,154,VALID,1.17768,
2002-09-24, 03:19:00,VALID,917.524,VALID,0,VALID,99.5514,VALID,0,VALID,19.0224,VALID,147,VALID,1.11655,
2002-09-24, 03:20:00,VALID,917.53,VALID,0,VALID,99.5387,VALID,-0.0339617,VALID,19.015,VALID,139,VALID,1.04665,
2002-09-24, 03:21:00,VALID,917.536,VALID,0,VALID,99.5488,VALID,-0.0339617,VALID,19.0219,VALID,128,VALID,0.876562,
2002-09-24, 03:22:00,VALID,917.525,VALID,0,VALID,99.5412,VALID,0,VALID,19.0254,VALID,134,VALID,0.459135,
2002-09-24, 03:23:00,VALID,917.524,VALID,0,VALID,99.5476,VALID,-0.0339617,VALID,19.0053,VALID,107,VALID,0.350507,
2002-09-24, 03:24:00,VALID,917.505,VALID,0,VALID,99.5539,VALID,-0.0169808,VALID,19.0122,VALID,109,VALID,0.025699,
2002-09-24, 03:25:00,VALID,917.493,VALID,0,VALID,99.5412,VALID,0,VALID,19.0092,VALID,109,VALID,0,
2002-09-24, 03:26:00,VALID,917.483,VALID,0,VALID,99.5488,VALID,-0.0339617,VALID,19.0157,VALID,109,VALID,0.00120192,
2002-09-24, 03:27:00,VALID,917.468,VALID,0,VALID,99.5514,VALID,-0.0339617,VALID,19.0062,VALID,109,VALID,0,
2002-09-24, 03:28:00,VALID,917.461,VALID,0,VALID,99.5539,VALID,-0.0339617,VALID,19.0095,VALID,109,VALID,0,
2002-09-24, 03:29:00,VALID,917.453,VALID,0,VALID,99.5437,VALID,-0.0509425,VALID,19.003,VALID,109,VALID,0,
2002-09-24, 03:30:00,VALID,917.465,VALID,0,VALID,99.5425,VALID,0,VALID,18.9963,VALID,109,VALID,0,
2002-09-24, 03:31:00,VALID,917.479,VALID,0,VALID,99.545,VALID,-0.0679233,VALID,18.9928,VALID,109,VALID,0.135156,
2002-09-24, 03:32:00,VALID,917.485,VALID,0,VALID,99.5463,VALID,-0.0509425,VALID,18.9802,VALID,79,VALID,0.201339,